Weather History for Pensacola, FL

Change the Weather History Date:

Saturday, February 23, 2013

  Actual Average Record
Temperature  
Mean Temperature 65 °F 56 °F  
Max Temperature 71 °F 65 °F 79 °F (1994)
Min Temperature 58 °F 47 °F 27 °F (1964)
Degree Days  
Heating Degree Days 0 9  
Month to date heating degree days 181 255  
Since 1 July heating degree days 853 1266  
Cooling Degree Days 0 0  
Month to date cooling degree days 10 0  
Year to date cooling degree days 40 6  
Growing Degree Days 15 (Base 50)    
Moisture  
Dew Point 61 °F    
Average Humidity 92    
Maximum Humidity 97    
Minimum Humidity 87    
Precipitation  
Precipitation 0.47 in 0.19 in 2.41 in (1942)
Month to date precipitation 6.96 4.14  
Year to date precipitation 9.32 8.77  
Snow  
Snow 0.00 in 0.00 in - ()
Month to date snowfall 0.0 0.0  
Since 1 July snowfall 0.0 0.0  
Snow Depth 0.00 in    
Sea Level Pressure  
Sea Level Pressure 29.88 in    
Wind  
Wind Speed 8 mph (NW)    
Max Wind Speed 15 mph    
Max Gust Speed 25 mph    
Visibility 8 miles    
Events Fog , Rain , Thunderstorm    
T = Trace of Precipitation, MM = Missing Value Source: NWS Daily Summary

Daily Weather History Graph

Daily Weather History Graph

Search for Another Location

Airport:

Trip Planner

Search our weather history database for the weather conditions in past years. The results will help you decide how hot, cold, wet, or windy it might be!

Date:

Astronomy

Feb. 23, 2013 Rise Set
Actual Time 6:21 AM CST 5:43 PM CST
Civil Twilight 5:56 AM CST 6:07 PM CST
Nautical Twilight 5:28 AM CST 6:35 PM CST
Astronomical Twilight 5:01 AM CST 7:03 PM CST
Moon 3:57 PM CST (2/23) 4:37 AM CST (2/23)
Length of Visible Light 12h 10m
Length of Day
11h 22m
Waxing Gibbous, 95% of the Moon is Illuminated
Feb 23
Waxing Gibbous
Feb 25
Full
Mar 4
Last Quarter
Mar 11
New
Mar 19
First Quarter

Hourly Weather History & Observations

Time (CST) Temp. Dew Point Humidity Pressure Visibility Wind Dir Wind Speed Gust Speed Precip Events Conditions
12:53 AM 69.1 °F 68.0 °F 96% 29.89 in 0.5 mi SSW 9.2 mph - N/A Fog Fog
1:05 AM 69.8 °F 69.8 °F 100% 29.87 in 1.8 mi SW 13.8 mph 19.6 mph N/A   Overcast
1:13 AM 71.6 °F 69.8 °F 94% 29.87 in 3.0 mi SSW 12.7 mph 19.6 mph N/A   Overcast
1:53 AM 71.1 °F 69.1 °F 93% 29.86 in 5.0 mi SW 13.8 mph - N/A   Overcast
2:23 AM 71.6 °F 68.0 °F 88% 29.85 in 9.0 mi SW 11.5 mph - N/A   Overcast
2:53 AM 71.1 °F 68.0 °F 90% 29.86 in 9.0 mi SW 11.5 mph - 0.00 in Rain Light Rain
3:01 AM 69.8 °F 68.0 °F 94% 29.85 in 9.0 mi SW 10.4 mph - 0.00 in   Overcast
3:09 AM 69.8 °F 68.0 °F 94% 29.84 in 8.0 mi SW 10.4 mph - 0.00 in   Overcast
3:48 AM 71.6 °F 69.8 °F 94% 29.85 in 5.0 mi WSW 10.4 mph - 0.05 in Rain Light Rain
3:53 AM 71.1 °F 69.1 °F 93% 29.86 in 9.0 mi WSW 9.2 mph - 0.05 in   Overcast
4:28 AM 71.6 °F 69.8 °F 94% 29.85 in 4.0 mi WSW 9.2 mph - 0.02 in Rain Heavy Rain
4:42 AM 71.6 °F 69.8 °F 94% 29.85 in 6.0 mi WSW 9.2 mph - 0.07 in Rain , Thunderstorm Light Rain
4:53 AM 71.1 °F 69.1 °F 93% 29.87 in 4.0 mi WSW 13.8 mph 19.6 mph 0.11 in Rain , Thunderstorm Heavy Rain
5:00 AM 71.6 °F 69.8 °F 94% 29.86 in 7.0 mi WSW 9.2 mph 19.6 mph 0.02 in Rain Light Rain
5:12 AM 69.8 °F 66.2 °F 88% 29.86 in 6.0 mi NNW 10.4 mph - 0.02 in   Overcast
5:53 AM 62.1 °F 60.1 °F 93% 29.88 in 6.0 mi North 6.9 mph - 0.02 in   Overcast
6:20 AM 62.6 °F 60.8 °F 94% 29.88 in 9.0 mi North 5.8 mph - N/A   Overcast
6:31 AM 62.6 °F 60.8 °F 94% 29.88 in 8.0 mi North 6.9 mph - 0.00 in Rain Light Rain
6:38 AM 62.6 °F 60.8 °F 94% 29.88 in 10.0 mi North 4.6 mph - 0.00 in Rain Light Rain
6:53 AM 61.0 °F 59.0 °F 93% 29.91 in 4.0 mi North 8.1 mph - 0.06 in Rain Rain
7:00 AM 60.8 °F 60.8 °F 100% 29.90 in 8.0 mi North 6.9 mph - 0.00 in Rain Light Rain
7:26 AM 60.8 °F 59.0 °F 94% 29.90 in 10.0 mi North 9.2 mph - 0.02 in Rain Light Rain
7:46 AM 60.8 °F 57.2 °F 88% 29.90 in 10.0 mi North 9.2 mph - 0.02 in   Overcast
7:53 AM 60.1 °F 57.9 °F 93% 29.92 in 3.0 mi NW 9.2 mph - 0.02 in Rain Rain
7:55 AM 60.8 °F 57.2 °F 88% 29.91 in 2.0 mi NW 5.8 mph - 0.06 in Rain Heavy Rain
8:09 AM 60.8 °F 57.2 °F 88% 29.92 in 10.0 mi Calm Calm - 0.10 in   Overcast
8:53 AM 60.1 °F 57.9 °F 93% 29.90 in 10.0 mi NNE 5.8 mph - 0.13 in Rain Light Rain
9:53 AM 61.0 °F 59.0 °F 93% 29.91 in 10.0 mi NNW 8.1 mph - 0.05 in Rain Light Rain
10:00 AM 62.6 °F 60.8 °F 94% 29.91 in 10.0 mi NW 6.9 mph - 0.01 in Rain Light Rain
10:53 AM 60.1 °F 57.0 °F 90% 29.90 in 10.0 mi NNE 3.5 mph - 0.01 in Rain Light Rain
11:53 AM 60.1 °F 57.0 °F 90% 29.90 in 10.0 mi North 6.9 mph - 0.00 in   Overcast
12:53 PM 60.1 °F 57.0 °F 90% 29.89 in 10.0 mi NNW 9.2 mph - 0.00 in Rain Light Rain
1:27 PM 60.8 °F 57.2 °F 88% 29.87 in 10.0 mi North 9.2 mph - 0.00 in Rain Light Rain
1:53 PM 60.1 °F 55.9 °F 86% 29.89 in 10.0 mi NNW 11.5 mph - 0.00 in   Overcast
2:53 PM 60.1 °F 55.9 °F 86% 29.87 in 10.0 mi North 9.2 mph - 0.00 in Rain Light Rain
3:53 PM 59.0 °F 55.9 °F 90% 29.89 in 10.0 mi ENE 3.5 mph - 0.00 in Rain Light Rain
4:53 PM 59.0 °F 55.9 °F 90% 29.80 in 10.0 mi East 5.8 mph - 0.02 in   Overcast
5:00 PM 59.0 °F 57.2 °F 94% 29.80 in 10.0 mi NE 3.5 mph - 0.00 in Rain Light Rain
5:18 PM 59.0 °F 57.2 °F 94% 29.83 in 10.0 mi Calm Calm - 0.00 in   Overcast
5:36 PM 59.0 °F 57.2 °F 94% 29.82 in 10.0 mi Calm Calm - 0.00 in   Mostly Cloudy
5:53 PM 59.0 °F 57.0 °F 93% 29.84 in 10.0 mi NW 8.1 mph - 0.00 in Rain Light Rain
6:08 PM 59.0 °F 57.2 °F 94% 29.85 in 10.0 mi NNW 8.1 mph - 0.00 in   Mostly Cloudy
6:53 PM 59.0 °F 57.0 °F 93% 29.91 in 10.0 mi NW 9.2 mph - 0.00 in   Overcast
7:53 PM 59.0 °F 57.0 °F 93% 29.91 in 10.0 mi NNW 5.8 mph - N/A   Overcast
8:53 PM 59.0 °F 57.0 °F 93% 29.93 in 8.0 mi North 5.8 mph - N/A   Overcast
9:35 PM 59.0 °F 57.2 °F 94% 29.94 in 5.0 mi Calm Calm - N/A   Overcast
9:53 PM 59.0 °F 57.0 °F 93% 29.95 in 3.0 mi North 3.5 mph - N/A   Overcast
10:13 PM 59.0 °F 57.2 °F 94% 29.94 in 7.0 mi North 4.6 mph - N/A   Overcast
10:53 PM 59.0 °F 55.9 °F 90% 29.95 in 10.0 mi North 4.6 mph - N/A   Overcast
11:27 PM 59.0 °F 55.4 °F 88% 29.94 in 10.0 mi North 4.6 mph - N/A   Overcast
11:53 PM 57.9 °F 55.0 °F 90% 29.96 in 10.0 mi North 5.8 mph - N/A   Overcast